Location: Holyhead Bay
(53.3667°N, 4.6667°W)
Time: 14:45:35
(UTC+00:00)

CZ-4 R/B - Visible Passes

Search period start: 13 April 2021 00:00
Search period end: 23 April 2021 00:00
Orbit: 532 x 597 km, 97.7° (Epoch: 12 April)

Date Brightness Start Highest point End Pass type
(mag) Time Alt. Az. Time Alt. Az. Time Alt. Az.
13 Apr 4.2 19:50:50 10° SW 19:54:13 23° W 19:57:37 10° NW visible
14 Apr 4.2 19:51:00 10° SW 19:54:23 23° W 19:57:47 10° NW visible
15 Apr 4.2 19:51:11 10° SW 19:54:33 23° W 19:57:57 10° NW visible
16 Apr 4.2 19:51:21 10° SW 19:54:43 23° W 19:58:06 10° NW visible
